Location: Czarnochowice
(50.0077°N, 20.0694°E)
Time: 00:15:41
(UTC+00:00)

Daily predictions for brighter satellites

Satellite Brightness Start Highest point End
(mag) Time Altitude Azimuth Time Altitude Azimuth Time Altitude Azimuth
Cosmos 1937 Rocket 3.7 00:04:13 20° SW 00:07:49 69° WNW 00:13:03 10° NNE
CZ-2C R/B 4.4 00:07:55 10° NNE 00:12:43 33° E 00:17:15 10° SSE
Cosmos 1844 Rocket 3.4 00:09:58 17° S 00:13:57 45° ESE 00:19:14 10° NE
SL-16 R/B 3.9 00:08:36 10° SE 00:14:16 38° ENE 00:19:56 10° N
Cosmos 1898 Rocket 4.2 00:13:33 16° SW 00:17:29 44° WNW 00:22:27 10° NNE
GEOS 3 Rocket 3.7 00:12:48 10° NE 00:17:59 75° NW 00:22:16 15° SW
Cosmos 1867 3.9 00:14:33 20° SSW 00:18:14 56° ESE 00:23:36 10° NE
Cosmos 1727 Rocket 4.1 00:12:21 10° N 00:18:44 84° E 00:24:57 11° S
Cosmos 1536 Rocket 3.6 00:17:51 20° S 00:20:54 82° E 00:25:20 10° NNE
MOZ.5/SAFIR/RUBIN 5/SL-8 3.8 00:20:45 18° S 00:24:11 63° WSW 00:28:47 10° NNW
SL-19 R/B 4.2 00:23:10 10° N 00:25:58 41° WNW 00:27:19 23° SW
H-2A R/B 3.7 00:27:01 10° NNE 00:30:58 58° ESE 00:34:03 16° S
CZ-2D R/B 2.7 00:25:49 10° NNE 00:31:02 52° E 00:35:45 12° S
COBE Rocket 4.0 00:26:19 10° N 00:31:30 80° WNW 00:35:31 17° SSW
Cosmos 1606 4.0 00:30:56 10° NW 00:33:48 23° W 00:35:21 17° SW
Helios 1A Rocket 3.8 00:32:17 20° SW 00:34:05 29° W 00:37:27 10° NW
ADEOS II 3.1 00:30:14 10° NNE 00:35:10 39° E 00:40:03 10° SSE
ALOS 4.2 00:32:14 10° NE 00:35:53 23° E 00:39:31 10° SE
USA 234 4.2 00:31:41 10° E 00:37:59 51° N 00:44:16 10° WNW
CZ-2C R/B 2.6 00:34:35 10° SSE 00:39:54 86° WSW 00:45:24 10° NNW
Cosmos 1607 4.0 00:33:30 10° NW 00:39:55 72° SW 00:46:10 10° SSE
SL-16 R/B 4.2 00:39:00 10° WNW 00:41:00 12° W 00:42:59 10° WSW
Meteor 1-27 4.4 00:36:26 10° NNW 00:42:10 60° W 00:47:19 13° S
CENTAUR R/B 3.9 00:38:11 10° W 00:44:03 39° NNW 00:51:14 10° NE
Cosmos 1437 Rocket 2.6 00:41:31 18° SSW 00:44:13 76° WNW 00:47:59 10° N
FENGYUN 3A 4.4 00:41:36 10° NNE 00:46:49 48° E 00:52:01 10° S
Cosmos 1461 4.2 00:43:18 10° WSW 00:46:51 31° NW 00:50:21 10° NNE
Cosmos 1603 4.0 00:41:38 10° NW 00:47:09 48° WSW 00:52:37 10° S
ASTEX 1 3.9 00:43:13 10° SSE 00:47:59 59° E 00:52:47 10° N
ATLAS 5 CENTAUR R/B 3.6 00:48:08 10° SE 00:48:49 10° ESE 00:49:31 10° E
Cosmos 2228 4.0 00:45:06 10° NNW 00:48:53 31° W 00:51:39 16° SW
GRACE-FO 1 4.4 00:48:02 14° S 00:50:57 85° W 00:54:31 10° N
GRACE-FO 2 4.4 00:48:28 14° S 00:51:24 84° W 00:54:57 10° N
Cosmos 1943 4.1 00:47:43 10° NW 00:52:28 29° WSW 00:56:23 14° SSW
Cosmos 2227 Rocket 4.5 00:50:46 10° WNW 00:54:26 17° NNW 00:58:07 10° N
Cosmos 1812 3.1 00:52:21 10° N 00:55:53 58° ENE 00:59:24 10° SSE
Resurs 1-4 Rocket 2.1 00:53:03 10° NNE 00:58:23 89° ESE 01:03:21 12° SSW
NPP 3.7 00:53:44 10° NNE 00:59:08 74° WNW 01:04:01 13° SSW
Cosmos 1821 Rocket 4.2 00:56:51 13° SSW 01:02:10 58° WNW 01:08:17 10° N
Cosmos 724 4.3 00:59:31 10° NW 01:05:14 61° WSW 01:10:59 10° SSE
USA 238 DEB 3.6 00:59:38 12° SW 01:05:27 84° NW 01:12:21 10° NE
USA 238 3.6 00:59:40 12° SW 01:05:29 84° NW 01:12:24 10° NE
Cosmos 2058 3.7 01:05:01 10° SSE 01:08:55 48° E 01:12:53 10° NNE
Cosmos 1892 Rocket 3.7 01:06:30 10° S 01:10:55 80° E 01:15:22 10° NNE
BlueWalker 3 1.8 01:08:23 10° WNW 01:12:08 79° SSW 01:15:52 10° ESE
Cosmos 2058 Rocket 3.3 01:07:55 10° N 01:12:22 73° ENE 01:16:45 10° SSE
ATLAS CENTAUR R/B 4.4 01:15:18 10° NNW 01:18:00 18° NNE 01:20:46 10° ENE
Cosmos 1833 Rocket 3.5 01:18:47 10° NNW 01:24:22 57° NE 01:29:54 10° SE
Iridium 4 Rocket 3.5 01:21:51 10° N 01:26:23 74° E 01:31:18 10° S
Cosmos 921 Rocket 4.2 01:24:56 10° NW 01:28:15 23° W 01:31:32 10° SSW
Cosmos 1544 2.9 01:27:56 10° S 01:30:27 50° E 01:33:01 10° NNE
IDEFIX/ARIANE 42P 3.4 01:27:43 10° N 01:32:34 39° WNW 01:37:23 10° SW
Cosmos 1934 Rocket 4.1 01:27:51 10° SSW 01:34:12 75° WNW 01:40:36 10° N
Cosmos 1626 Rocket 4.5 01:30:37 10° SSE 01:34:52 49° E 01:39:07 10° NNE
Cosmos 1125 Rocket 3.6 01:30:56 10° SSW 01:36:13 81° WNW 01:41:34 10° NNE
Cosmos 2123 Rocket 4.2 01:31:01 10° NNW 01:37:03 56° W 01:43:05 10° SSW
MSX 4.4 01:32:22 10° N 01:37:47 45° WNW 01:43:11 10° SW
Cosmos 1844 4.2 01:33:07 10° SW 01:38:47 56° NW 01:44:31 10° NNE
Cosmos-2242 3.6 01:34:39 10° N 01:38:56 60° ENE 01:43:10 10° SSE
Cosmos 2263 Rocket 4.3 01:37:13 10° WNW 01:40:54 18° NW 01:44:35 10° N
Meteor 1-28 Rocket 3.5 01:37:49 10° S 01:41:11 42° W 01:44:36 10° NNW
USA 267 4.2 01:37:32 10° ENE 01:43:34 38° SE 01:49:34 10° SSW
IRAS Rocket 4.5 01:43:44 10° NNE 01:49:14 73° ESE 01:54:44 10° S
